High Falls Lake Weather Center

Moon Phase Calendar



High Falls Lake Water Level
Online Cameras

 


      

Current Conditions in Indian Springs
2/27/2021 7:05:53 AM

47°F
Feels Like 45
Clouds
Humidity
100%
Pressure
30.18"
Wind
3.2 mph (ESE)
Dew Point
47°F
UV Index
0/10 (Low)
Visibility
1 mi

Hourly Forecast

Date & Time Sat, Feb 27
7:00 AM
Sat, Feb 27
8:00 AM
Sat, Feb 27
9:00 AM
Sat, Feb 27
10:00 AM
Sat, Feb 27
11:00 AM
Sat, Feb 27
12:00 PM
Sat, Feb 27
1:00 PM
Sat, Feb 27
2:00 PM
Sat, Feb 27
3:00 PM
Sat, Feb 27
4:00 PM
Sat, Feb 27
5:00 PM
Sat, Feb 27
6:00 PM
Sat, Feb 27
7:00 PM
Sat, Feb 27
8:00 PM
Sat, Feb 27
9:00 PM
Sat, Feb 27
10:00 PM
Sat, Feb 27
11:00 PM
Sun, Feb 28
12:00 AM
Sun, Feb 28
1:00 AM
Sun, Feb 28
2:00 AM
Sun, Feb 28
3:00 AM
Sun, Feb 28
4:00 AM
Sun, Feb 28
5:00 AM
Sun, Feb 28
6:00 AM
Sun, Feb 28
7:00 AM
Sun, Feb 28
8:00 AM
Sun, Feb 28
9:00 AM
Sun, Feb 28
10:00 AM
Sun, Feb 28
11:00 AM
Sun, Feb 28
12:00 PM
Sun, Feb 28
1:00 PM
Sun, Feb 28
2:00 PM
Sun, Feb 28
3:00 PM
Sun, Feb 28
4:00 PM
Sun, Feb 28
5:00 PM
Sun, Feb 28
6:00 PM
Sun, Feb 28
7:00 PM
Sun, Feb 28
8:00 PM
Sun, Feb 28
9:00 PM
Sun, Feb 28
10:00 PM
Sun, Feb 28
11:00 PM
Mon, Mar 1
12:00 AM
Mon, Mar 1
1:00 AM
Mon, Mar 1
2:00 AM
Mon, Mar 1
3:00 AM
Mon, Mar 1
4:00 AM
Mon, Mar 1
5:00 AM
Mon, Mar 1
6:00 AM
Condition
Clouds

Clouds

Clouds

Clouds

Clouds

Clouds

Clouds

Clouds

Clouds

Clouds

Clouds

Clouds

Clouds

Clouds

Clouds

Clouds

Clouds

Clouds

Clouds

Clouds

Clouds

Clouds

Clouds

Clouds

Clouds

Clouds

Clouds

Clouds

Clouds

Clouds

Clouds

Clouds

Clouds

Clouds

Clouds

Clouds

Clouds

Clouds

Clouds

Clouds

Clouds

Clouds

Clouds

Clouds

Clouds

Clouds

Rain

Rain
Temperature 47°F50°F55°F62°F68°F72°F74°F75°F76°F75°F74°F69°F65°F64°F63°F63°F63°F63°F63°F61°F60°F59°F59°F59°F59°F61°F64°F66°F68°F72°F75°F77°F78°F77°F75°F71°F69°F67°F67°F67°F66°F66°F65°F65°F65°F66°F67°F66°F
Feels Like 45°F48°F54°F61°F68°F71°F73°F73°F74°F74°F75°F71°F66°F65°F65°F64°F63°F63°F63°F61°F60°F60°F60°F60°F60°F61°F64°F65°F67°F70°F73°F74°F74°F74°F74°F71°F68°F67°F66°F65°F65°F64°F63°F63°F63°F64°F64°F64°F
Cloudiness 90%77%74%72%78%78%78%99%97%98%99%99%99%100%100%100%99%99%98%67%56%43%53%62%64%99%99%100%100%100%100%100%100%100%100%100%100%100%98%99%99%99%99%100%100%100%100%99%
Visibility 6 mi4 mi6 mi6 mi6 mi6 mi6 mi6 mi6 mi6 mi6 mi6 mi6 mi6 mi6 mi6 mi6 mi6 mi6 mi6 mi6 mi6 mi6 mi6 mi6 mi6 mi6 mi6 mi6 mi6 mi6 mi6 mi6 mi6 mi6 mi6 mi6 mi6 mi6 mi6 mi6 mi6 mi6 mi6 mi6 mi6 mi6 mi6 mi
Precipitation 0%0%0%0%0%0%0%0%0%0%0%0%0%0%0%0%0%0%0%0%0%0%0%0%0%3%3%0%0%0%0%24%20%11%9%23%22%9%9%6%0%0%0%3%3%8%36%59%
Humidity 100%98%92%83%71%63%59%57%55%56%65%74%83%88%88%87%84%85%88%94%96%96%97%97%98%98%92%89%83%73%64%59%56%58%65%73%79%81%81%82%84%86%88%91%92%87%85%86%
Dew Point 47°F49°F53°F57°F59°F59°F59°F59°F58°F59°F61°F61°F60°F60°F60°F59°F59°F59°F59°F59°F58°F58°F58°F59°F59°F60°F62°F63°F63°F63°F62°F61°F61°F61°F62°F62°F62°F61°F61°F61°F61°F62°F62°F62°F62°F62°F63°F62°F
Pressure 30.18"30.18"30.18"30.21"30.21"30.18"30.18"30.15"30.12"30.12"30.12"30.12"30.15"30.18"30.18"30.18"30.18"30.15"30.15"30.15"30.15"30.12"30.12"30.15"30.15"30.18"30.18"30.18"30.15"30.12"30.09"30.06"30.03"30"30"30"30"30.03"30.03"30"30"29.97"29.94"29.91"29.91"29.91"29.91"29.94"
Wind Speed 3.2 mph3.6 mph4.1 mph4.7 mph5.9 mph7.1 mph7.5 mph7.6 mph7.6 mph6.8 mph4 mph3.7 mph4.2 mph3.8 mph3.5 mph4.6 mph5.6 mph5.8 mph5.2 mph4.6 mph4.8 mph4.2 mph3.9 mph3.7 mph4.5 mph6.4 mph8.5 mph8.5 mph9.4 mph11 mph11.7 mph11.7 mph11.8 mph10.7 mph9.2 mph7.4 mph7.4 mph7.8 mph9 mph9.3 mph9.4 mph10.1 mph10.8 mph11.1 mph10.8 mph11.7 mph13.1 mph11.4 mph
Wind
Direction
104°
ESE
122°
ESE
148°
SSE
176°
S
194°
SSW
205°
SSW
210°
SSW
209°
SSW
210°
SSW
207°
SSW
202°
SSW
187°
S
179°
S
182°
S
180°
S
171°
S
176°
S
185°
S
218°
SW
211°
SSW
227°
SW
229°
SW
224°
SW
215°
SW
192°
SSW
190°
S
206°
SSW
205°
SSW
205°
SSW
210°
SSW
214°
SW
216°
SW
216°
SW
210°
SSW
203°
SSW
200°
SSW
209°
SSW
211°
SSW
214°
SW
218°
SW
221°
SW
218°
SW
217°
SW
213°
SSW
223°
SW
223°
SW
221°
SW
257°
WSW

Daily Forecast

Date High Low Precip. Humidity
Today
Feb 27

Clouds
76 °F
47 °F
33%
63%
Sunday
Feb 28

Clouds
78 °F
59 °F
24%
72%
Monday
Mar 1

Rain
66 °F
48 °F
88%
60%
Tuesday
Mar 2

Clear
58 °F
38 °F
3%
47%
Wednesday
Mar 3

Clouds
54 °F
35 °F
6%
62%
Thursday
Mar 4

Rain
67 °F
47 °F
100%
71%
Friday
Mar 5

Rain
66 °F
59 °F
100%
89%
Saturday
Mar 6

Rain
60 °F
49 °F
97%
85%
Sunday
Mar 7

Clouds
61 °F
47 °F
0%
65%
Monday
Mar 8

Clear
66 °F
47 °F
0%
40%
Tuesday
Mar 9

Clear
67 °F
41 °F
0%
29%
Wednesday
Mar 10

Clouds
70 °F
44 °F
0%
39%
Thursday
Mar 11

Rain
69 °F
54 °F
99%
54%
Friday
Mar 12

Rain
57 °F
45 °F
100%
91%
Saturday
Mar 13

Clear
55 °F
40 °F
0%
42%
Sunday
Mar 14

Clear
61 °F
35 °F
0%
34%


Temperature 8-14 Day Outlook



Precipitation 8-14 Day Outlook




Quick Links
High Falls Lake News
High Falls Lake Photos
High Falls Lake Videos




About Us
Contact Us
Site Map
Search Site
Advertise With Us
   
HighFalls.LakesOnline.com
THE HIGH FALLS LAKE WEBSITE

Copyright 2021, Lakes Online
Privacy    |    Legal